[[{"header":{"parameterUnit":"m.s-1","parameterCategory":1,"la1":30.2992,"la2":30.254,"lo1":-89.0895,"lo2":-89.0443,"dy":0.0025,"dx":0.0025,"nx":19,"ny":19,"refTime":"2026-05-20T09:00:00:Z","depth":0,"parameterNumber":2,"parameterNumberName":"U-component_of_WINDS"},"data":[0,0,0,-2.1458,-2.146,-2.1514,-2.1514,-2.1597,-2.1598,0,0,0,0,0,0,0,0,0,0,0,-2.145,-2.1451,-2.1458,-2.146,-2.1514,-2.1514,-2.1597,-2.1598,0,0,0,0,0,0,0,0,0,0,0,-2.145,-2.1451,-2.1452,-2.146,-2.1514,-2.1514,-2.1597,-2.1551,0,0,0,0,0,0,0,0,0,0,-2.1496,-2.1496,-2.1451,-2.1452,-2.1461,-2.1514,-2.1514,-2.1549,-2.1554,-2.1578,0,-2.1602,0,-2.1602,-2.1604,-2.1605,0,0,0,-2.1454,-2.1492,-2.15,-2.1452,-2.1461,-2.1514,-2.1488,-2.1551,-2.1557,-2.1585,-2.1603,-2.1606,-2.1603,-2.1605,-2.1605,-2.1768,-2.1769,0,0,-2.1451,-2.1464,-2.1495,-2.1504,-2.1496,-2.1486,-2.149,-2.1555,-2.1575,-2.1603,-2.1608,-2.1604,-2.1606,-2.1606,-2.1767,-2.1768,0,0,0,-2.1446,-2.1463,-2.1468,-2.1501,-2.151,-2.1488,-2.1492,-2.1572,-2.1573,-2.1608,-2.1605,-2.1606,-2.1607,-2.1765,-2.1767,-2.1832,0,0,0,-2.1444,-2.146,-2.1467,-2.1476,-2.1509,-2.1542,-2.1508,-2.1568,-2.1575,-2.1605,-2.1606,-2.1608,-2.1764,-2.1766,-2.1827,-2.1859,0,0,0,-2.1444,-2.146,-2.1471,-2.1477,-2.1501,-2.154,-2.1544,-2.1569,-2.1574,-2.1605,-2.1608,-2.1763,-2.1766,-2.1823,-2.1853,-2.1906,0,0,0,-2.1448,-2.1527,-2.1472,-2.1559,-2.15,-2.158,-2.1544,-2.1603,-2.1637,-2.1607,-2.1764,-2.1767,-2.1822,-2.1849,-2.1902,-2.1952,-2.1974,0,0,-2.1555,-2.154,-2.1591,-2.1543,-2.1636,-2.1571,-2.1674,-2.1692,-2.1682,-2.174,-2.1743,-2.1829,-2.1853,-2.1905,-2.2097,-2.2115,0,0,0,-2.1629,-2.1666,-2.1687,-2.1721,-2.1738,-2.1755,-2.1756,-2.1763,-2.1811,-2.1715,-2.1862,-2.1876,-2.1906,-2.1929,-2.1944,-2.1969,-2.1778,-2.1778,-2.1778,-2.18,-2.1784,-2.1866,-2.1857,-2.1891,-2.1892,-2.1918,-2.1928,-2.1901,-2.1937,-2.1953,-2.2071,-2.2099,-2.2111,-2.2137,-2.1979,-2.1979,-2.198,-2.198,-2.1955,-2.2003,-2.1968,-2.2035,-2.2018,-2.2074,-2.208,-2.2059,-2.2109,-2.2058,-2.2083,-2.2027,-2.2131,-2.2152,-2.1985,-2.1984,-2.1983,-2.1983,-2.1982,-2.2063,-2.2084,-2.2092,-2.214,-2.2179,-2.2167,-2.2217,-2.22,-2.2184,-2.221,-2.2225,-2.2224,-2.222,-2.2219,-2.2219,-2.222,-2.222,-2.222,-2.2221,-2.2172,-2.2179,-2.2223,-2.2249,-2.2269,-2.2293,-2.2297,-2.2316,-2.2333,-2.2316,-2.2316,-2.2287,-2.2144,-2.2108,-2.2227,-2.2226,-2.2225,-2.2224,-2.2224,-2.2333,-2.2294,-2.2362,-2.2382,-2.2411,-2.2451,-2.243,-2.2471,-2.2484,-2.2509,-2.2475,-2.2373,-2.2356,-2.2344,-2.2314,-2.2478,-2.2478,-2.2479,-2.2479,-2.2424,-2.2414,-2.248,-2.2514,-2.2545,-2.2533,-2.261,-2.2615,-2.2613,-2.262,-2.2594,-2.2554,-2.2542,-2.2532,-2.2516,-2.2487,-2.2693,-2.2693,-2.2693,-2.2521,-2.2514,-2.2583,-2.2581,-2.2603,-2.2623,-2.2695,-2.2735,-2.2725,-2.2701,-2.2626,-2.2617,-2.2551,-2.253,-2.2502,-2.2478,-2.2425,0,0]},{"header":{"parameterUnit":"m.s-1","parameterCategory":1,"la1":30.2992,"la2":30.254,"lo1":-89.0895,"lo2":-89.0443,"dy":0.0025,"dx":0.0025,"nx":19,"ny":19,"refTime":"2026-05-20T09:00:00:Z","depth":0,"parameterNumber":3,"parameterNumberName":"V-component_of_WINDS"},"data":[0,0,0,3.1479,3.148,3.1527,3.1527,3.1567,3.1567,0,0,0,0,0,0,0,0,0,0,0,3.1453,3.1453,3.1479,3.148,3.1527,3.1527,3.1567,3.1567,0,0,0,0,0,0,0,0,0,0,0,3.1453,3.1453,3.1453,3.148,3.1527,3.1527,3.1567,3.1538,0,0,0,0,0,0,0,0,0,0,3.1496,3.146,3.1453,3.1453,3.148,3.1527,3.1527,3.1537,3.154,3.1537,0,3.1531,0,3.1549,3.1568,3.1568,0,0,0,3.1489,3.1458,3.1482,3.1453,3.1481,3.1527,3.1508,3.1539,3.1542,3.154,3.1531,3.1533,3.155,3.1568,3.1568,3.1521,3.1521,0,0,3.1486,3.1455,3.1479,3.1483,3.1475,3.1507,3.151,3.1541,3.1529,3.1532,3.1535,3.1551,3.1568,3.1569,3.1522,3.1521,0,0,0,3.1473,3.1452,3.1476,3.1481,3.1491,3.1508,3.1511,3.1528,3.1538,3.1535,3.1551,3.1569,3.1569,3.1523,3.1522,3.146,0,0,0,3.1472,3.1445,3.1474,3.1455,3.149,3.151,3.1497,3.1536,3.1541,3.1551,3.1569,3.1569,3.1523,3.1522,3.1463,3.1436,0,0,0,3.1454,3.1443,3.1445,3.1454,3.1473,3.151,3.1523,3.1538,3.155,3.1568,3.1569,3.1524,3.1522,3.1466,3.144,3.1415,0,0,0,3.1426,3.1388,3.1444,3.1408,3.1472,3.1472,3.1523,3.1524,3.1533,3.1569,3.1523,3.1522,3.1467,3.1444,3.1418,3.1387,3.1371,0,0,3.1361,3.1379,3.1361,3.1412,3.1394,3.1468,3.1441,3.1478,3.1508,3.1515,3.1514,3.1462,3.1441,3.1415,3.1295,3.1283,0,0,0,3.133,3.1316,3.1319,3.1326,3.1354,3.1377,3.1422,3.1436,3.1444,3.1505,3.1447,3.1435,3.1422,3.1408,3.1398,3.1388,3.1514,3.1515,3.1515,3.119,3.1233,3.1206,3.1255,3.1262,3.131,3.132,3.1347,3.1386,3.1372,3.1374,3.1296,3.128,3.1272,3.1261,3.1362,3.1361,3.1361,3.1361,3.1099,3.1087,3.1143,3.1137,3.1183,3.1178,3.1224,3.1253,3.1255,3.1298,3.1288,3.1329,3.1256,3.125,3.1357,3.1358,3.1358,3.1359,3.1359,3.1012,3.1014,3.1033,3.105,3.1058,3.111,3.111,3.1151,3.119,3.118,3.1188,3.1189,3.1195,3.1181,3.1181,3.1181,3.118,3.118,3.118,3.0914,3.0938,3.0934,3.0963,3.0975,3.0995,3.1045,3.1058,3.1082,3.1112,3.1112,3.1153,3.1242,3.1263,3.1176,3.1177,3.1177,3.1178,3.1178,3.0804,3.0836,3.0829,3.0841,3.0881,3.0887,3.0941,3.0963,3.0979,3.0979,3.1023,3.1082,3.1103,3.1112,3.113,3.1014,3.1014,3.1014,3.1014,3.073,3.0746,3.075,3.0767,3.0787,3.0836,3.0828,3.0868,3.0914,3.0927,3.095,3.0977,3.0984,3.1002,3.1013,3.103,3.0891,3.0891,3.0891,3.0665,3.0686,3.0671,3.0717,3.0752,3.0781,3.0775,3.0792,3.085,3.0887,3.0938,3.0943,3.0988,3.1,3.1036,3.1053,3.1085,0,0]}]]